Tracy, MN

1:01 PM CST on December 16, 2017 (GMT -0600)
Tracy

Weather History for KTKC - February, 2014

Change the Weather History Date:

Thursday, February 13, 2014

  Actual Average (KMML) Record (KMML)
Temperature  
Mean Temperature 20 °F -  
Max Temperature 35 °F 28 °F 50 °F (2017)
Min Temperature 6 °F 8 °F -16 °F (1970)
Degree Days  
Heating Degree Days 44    
Moisture  
Dew Point 13 °F    
Average Humidity 76    
Maximum Humidity 85    
Minimum Humidity 67    
Precipitation  
Precipitation 0.01 in - - ()
Sea Level Pressure  
Sea Level Pressure 29.63 in    
Wind  
Wind Speed 21 mph (WNW)    
Max Wind Speed 32 mph    
Max Gust Speed 41 mph    
Visibility 8 miles    
Events Snow    
Averages and records for this station are not official NWS values.
T = Trace of Precipitation, MM = Missing Value Source: NWS Daily Summary

Daily Weather History Graph

Daily Weather History Graph

Search for Another Location

Airport or City:

Trip Planner

Search our weather history database for the weather conditions in past years. The results will help you decide how hot, cold, wet, or windy it might be!

Date:

Astronomy

Feb. 13, 2014 Rise Set
Actual Time 7:24 AM CST 5:49 PM CST
Civil Twilight 6:54 AM CST 6:18 PM CST
Nautical Twilight 6:20 AM CST 6:52 PM CST
Astronomical Twilight 5:47 AM CST 7:26 PM CST
Moon 4:58 PM CST (2/13) 6:19 AM CST (2/13)
Length of Visible Light 11h 23m
Length of Day
10h 24m
Waxing Gibbous, 99% of the Moon is Illuminated
Feb 13
Waxing Gibbous
Feb 14
Full
Feb 22
Last Quarter
Mar 1
New
Mar 8
First Quarter

Hourly Weather History & Observations

Time (CST) Temp. Windchill Dew Point Humidity Pressure Visibility Wind Dir Wind Speed Gust Speed Precip Events Conditions
12:17 AM 23.0 °F 9.2 °F 19.2 °F 85% 29.60 in 5.0 mi South 17.3 mph 26.5 mph N/A   Scattered Clouds
12:38 AM 23.7 °F 8.9 °F 19.4 °F 84% 29.57 in 5.0 mi South 20.7 mph 28.8 mph N/A   Haze
12:58 AM 24.3 °F 9.3 °F 19.4 °F 82% 29.55 in 5.0 mi SSW 21.9 mph 32.2 mph N/A   Haze
1:17 AM 24.8 °F 10.3 °F 19.6 °F 81% 29.55 in 5.0 mi SSW 20.7 mph 29.9 mph N/A   Haze
1:37 AM 25.5 °F 10.9 °F 20.1 °F 80% 29.50 in 5.0 mi South 21.9 mph 28.8 mph N/A   Haze
1:58 AM 26.6 °F 9.8 °F 21.2 °F 80% 29.50 in 2.5 mi SSW 32.2 mph 38.0 mph 0.01 in Snow Light Snow
2:17 AM 26.6 °F 10.0 °F 21.2 °F 80% 29.49 in 3.0 mi SSW 31.1 mph 41.4 mph N/A Snow Light Snow
2:37 AM 26.6 °F 10.3 °F 21.6 °F 81% 29.49 in 7.0 mi SSW 29.9 mph 38.0 mph N/A   Scattered Clouds
2:58 AM 26.6 °F 10.0 °F 21.7 °F 82% 29.46 in 4.0 mi SSW 31.1 mph 39.1 mph N/A Snow Light Snow
3:17 AM 26.8 °F 10.5 °F 21.9 °F 82% 29.43 in 5.0 mi SSW 29.9 mph 39.1 mph N/A   Haze
3:37 AM 26.4 °F 10.3 °F 21.6 °F 82% 29.44 in 10.0 mi SW 28.8 mph 39.1 mph N/A   Clear
3:57 AM 26.4 °F 10.1 °F 21.7 °F 82% 29.44 in 10.0 mi SW 29.9 mph 38.0 mph N/A   Clear
4:18 AM 26.2 °F 10.9 °F 21.7 °F 83% 29.43 in 10.0 mi SW 25.3 mph 33.4 mph N/A   Clear
4:38 AM 27.3 °F 12.4 °F 22.1 °F 81% 29.45 in 10.0 mi SW 25.3 mph 32.2 mph N/A   Clear
4:57 AM 28.4 °F 14.7 °F 22.8 °F 80% 29.46 in 10.0 mi WSW 21.9 mph 32.2 mph N/A   Clear
5:17 AM 28.2 °F 14.8 °F 22.8 °F 80% 29.46 in 10.0 mi SW 20.7 mph 29.9 mph N/A   Clear
5:38 AM 28.8 °F 15.5 °F 23.0 °F 79% 29.45 in 10.0 mi WSW 20.7 mph 28.8 mph N/A   Clear
5:57 AM 28.8 °F 15.5 °F 23.2 °F 80% 29.45 in 10.0 mi WSW 20.7 mph 26.5 mph N/A   Clear
6:17 AM 31.8 °F 21.4 °F 24.8 °F 75% 29.45 in 10.0 mi WSW 15.0 mph 27.6 mph N/A   Clear
6:38 AM 33.1 °F 23.0 °F 25.7 °F 74% 29.45 in 10.0 mi West 15.0 mph 20.7 mph N/A   Clear
6:58 AM 33.3 °F 23.7 °F 26.1 °F 75% 29.46 in 10.0 mi West 13.8 mph 21.9 mph N/A   Clear
7:17 AM 32.9 °F 25.3 °F 26.1 °F 76% 29.47 in 10.0 mi West 9.2 mph 17.3 mph N/A   Clear
7:37 AM 35.6 °F 24.5 °F 27.9 °F 73% 29.48 in 10.0 mi WNW 20.7 mph 31.1 mph N/A   Scattered Clouds
7:58 AM 35.1 °F 23.8 °F 27.3 °F 73% 29.50 in 5.0 mi WNW 20.7 mph 33.4 mph N/A   Haze
8:18 AM 33.3 °F 20.6 °F 25.3 °F 73% 29.53 in 2.5 mi WNW 24.2 mph 40.3 mph N/A Snow Light Snow
8:38 AM 30.6 °F 17.3 °F 23.7 °F 76% 29.55 in 1.0 mi WNW 23.0 mph 38.0 mph N/A Snow Light Snow
8:57 AM 27.9 °F 11.5 °F 19.6 °F 71% 29.56 in 1.0 mi NW 32.2 mph 39.1 mph N/A Snow Light Snow
9:18 AM 23.2 °F 7.8 °F 15.6 °F 73% 29.58 in 7.0 mi NNW 21.9 mph 31.1 mph N/A   Clear
9:38 AM 21.4 °F 4.7 °F 14.0 °F 73% 29.60 in 10.0 mi NW 24.2 mph 35.7 mph N/A   Clear
9:57 AM 19.6 °F 1.4 °F 12.0 °F 72% 29.62 in 1.5 mi NW 27.6 mph 39.1 mph N/A   Haze
10:17 AM 18.1 °F -0.3 °F 10.4 °F 72% 29.63 in 1.5 mi NW 26.5 mph 40.3 mph N/A Snow Light Snow
10:38 AM 17.4 °F -1.2 °F 9.9 °F 72% 29.64 in 3.0 mi NW 26.5 mph 36.8 mph N/A Snow Light Snow
10:57 AM 17.2 °F -2.4 °F 8.6 °F 69% 29.64 in 10.0 mi NW 29.9 mph 36.8 mph N/A   Clear
11:17 AM 17.4 °F -0.2 °F 10.9 °F 76% 29.65 in 5.0 mi NW 23.0 mph 29.9 mph N/A Snow Light Snow
11:37 AM 17.6 °F -1.0 °F 9.9 °F 72% 29.66 in 10.0 mi NW 26.5 mph - N/A   Clear
11:58 AM 17.6 °F -1.6 °F 9.5 °F 71% 29.67 in 10.0 mi NW 28.8 mph 33.4 mph N/A   Clear
12:18 PM 17.6 °F 0.1 °F 9.5 °F 71% 29.66 in 10.0 mi NW 23.0 mph 33.4 mph N/A   Clear
12:37 PM 17.8 °F -0.7 °F 10.9 °F 75% 29.66 in 3.0 mi NW 26.5 mph 31.1 mph N/A   Haze
12:57 PM 17.6 °F 0.1 °F 9.5 °F 71% 29.68 in 7.0 mi NW 23.0 mph 32.2 mph N/A   Clear
1:38 PM 17.6 °F 0.1 °F 9.9 °F 72% 29.69 in 10.0 mi NW 23.0 mph 28.8 mph N/A   Clear
1:57 PM 17.8 °F -0.4 °F 11.1 °F 75% 29.69 in 3.0 mi NW 25.3 mph 28.8 mph N/A Snow Light Snow
2:17 PM 16.7 °F -1.1 °F 7.7 °F 68% 29.69 in 10.0 mi NNW 23.0 mph 31.1 mph N/A   Clear
2:37 PM 16.7 °F 0.1 °F 9.0 °F 72% 29.69 in 7.0 mi NNW 19.6 mph 26.5 mph N/A   Clear
2:58 PM 16.9 °F -0.5 °F 8.2 °F 69% 29.70 in 10.0 mi NW 21.9 mph 26.5 mph N/A   Clear
3:17 PM 16.7 °F 0.1 °F 8.6 °F 70% 29.71 in 10.0 mi NW 19.6 mph 26.5 mph N/A   Clear
3:38 PM 16.5 °F 0.8 °F 7.9 °F 69% 29.72 in 10.0 mi NW 17.3 mph 27.6 mph N/A   Clear
3:57 PM 16.5 °F -0.1 °F 7.3 °F 67% 29.72 in 10.0 mi NNW 19.6 mph 24.2 mph N/A   Clear
4:17 PM 16.3 °F 1.6 °F 7.9 °F 69% 29.73 in 10.0 mi NNW 15.0 mph 20.7 mph N/A   Clear
4:37 PM 15.8 °F 0.9 °F 7.5 °F 70% 29.74 in 10.0 mi NW 15.0 mph 24.2 mph N/A   Clear
4:58 PM 14.9 °F -0.3 °F 6.8 °F 70% 29.73 in 10.0 mi NW 15.0 mph - N/A   Clear
5:18 PM 13.8 °F -1.1 °F 5.5 °F 70% 29.73 in 10.0 mi NNW 13.8 mph 20.7 mph N/A   Clear
5:38 PM 12.9 °F -2.2 °F 5.2 °F 71% 29.74 in 10.0 mi NNW 13.8 mph - N/A   Clear
5:58 PM 12.2 °F -2.5 °F 4.6 °F 72% 29.76 in 10.0 mi NW 12.7 mph - N/A   Clear
6:18 PM 11.3 °F -4.9 °F 4.6 °F 75% 29.78 in 10.0 mi NW 15.0 mph - N/A   Clear
6:37 PM 10.9 °F -2.6 °F 4.1 °F 74% 29.75 in 10.0 mi NNW 10.4 mph - N/A   Clear
6:58 PM 10.4 °F -2.4 °F 3.7 °F 74% 29.76 in 10.0 mi NW 9.2 mph - N/A   Clear
7:18 PM 9.7 °F - 3.7 °F 77% 29.77 in 10.0 mi Calm Calm - N/A   Clear
7:37 PM 9.9 °F 0.2 °F 3.7 °F 76% 29.76 in 10.0 mi NNW 5.8 mph - N/A   Clear
7:58 PM 9.3 °F - 4.5 °F 81% 29.75 in 10.0 mi Calm Calm - N/A   Clear
8:18 PM 8.8 °F - 4.5 °F 83% 29.77 in 10.0 mi Calm Calm - N/A   Clear
8:37 PM 9.1 °F -3.0 °F 4.3 °F 81% 29.76 in 10.0 mi NNW 8.1 mph - N/A   Clear
8:57 PM 8.8 °F -5.3 °F 3.6 °F 79% 29.76 in 10.0 mi NNW 10.4 mph - N/A   Clear
9:17 PM 8.6 °F -7.7 °F 3.2 °F 79% 29.78 in 10.0 mi NW 13.8 mph - N/A   Clear
9:38 PM 8.6 °F -6.3 °F 3.2 °F 79% 29.76 in 10.0 mi NNW 11.5 mph - N/A   Scattered Clouds
9:58 PM 7.7 °F -5.8 °F 2.3 °F 79% 29.76 in 10.0 mi NNW 9.2 mph - N/A   Scattered Clouds
10:17 PM 7.2 °F -6.4 °F 1.6 °F 78% 29.77 in 10.0 mi NNW 9.2 mph - N/A   Clear
10:37 PM 6.8 °F -3.5 °F 1.4 °F 79% 29.77 in 10.0 mi NNW 5.8 mph - N/A   Clear
10:58 PM 6.6 °F -5.0 °F 1.4 °F 79% 29.76 in 10.0 mi NNW 6.9 mph - N/A   Scattered Clouds
11:18 PM 6.8 °F -9.3 °F 1.6 °F 79% 29.78 in 10.0 mi NW 12.7 mph - N/A   Mostly Cloudy
11:38 PM 6.8 °F -10.0 °F 1.2 °F 78% 29.78 in 10.0 mi NNW 13.8 mph 17.3 mph N/A   Overcast
11:57 PM 6.8 °F -8.6 °F 0.9 °F 77% 29.78 in 10.0 mi NNW 11.5 mph - N/A   Overcast